Weather History for San Jose, Costa Rica

Change the Weather History Date:

Tuesday, October 16, 2012

  Actual Average Record
Temperature  
Mean Temperature 71 °F -  
Max Temperature 80 °F 78 °F 86 °F (2001)
Min Temperature 62 °F 64 °F 62 °F (1999)
Cooling Degree Days 6    
Growing Degree Days 21 (Base 50)    
Moisture  
Dew Point 64 °F    
Average Humidity 84    
Maximum Humidity 94    
Minimum Humidity 54    
Precipitation  
Precipitation 0.51 in 0.30 in - ()
Sea Level Pressure  
Sea Level Pressure 29.95 in    
Wind  
Wind Speed 3 mph ()    
Max Wind Speed 12 mph    
Max Gust Speed -    
Visibility 6.5 miles    
Events Fog , Rain    
Averages and records for this station are not official NWS values.
T = Trace of Precipitation, MM = Missing Value Source: Averaged Metar Reports

Daily Weather History Graph

Daily Weather History Graph

Search for Another Location

Airport:

Trip Planner

Search our weather history database for the weather conditions in past years. The results will help you decide how hot, cold, wet, or windy it might be!

Date:

Astronomy

Oct. 16, 2012 Rise Set
Actual Time 5:25 AM CST 5:19 PM CST
Civil Twilight 5:04 AM CST 5:40 PM CST
Nautical Twilight 4:39 AM CST 6:04 PM CST
Astronomical Twilight 4:14 AM CST 6:29 PM CST
Moon 6:25 AM CST (10/16) 6:28 PM CST (10/16)
Length of Visible Light 12h 36m
Length of Day
11h 53m
New Moon, 2% of the Moon is Illuminated
Oct 16
New Moon
Oct 21
First Quarter
Oct 29
Full
Nov 6
Last Quarter
Nov 13
New

Hourly Weather History & Observations

Time (CST) Temp. Heat Index Dew Point Humidity Pressure Visibility Wind Dir Wind Speed Gust Speed Precip Events Conditions
12:00 AM 66 °F - 64 °F 91% 29.83 in 9 mi SE 2.3 mph - - Fog Light Fog
12:00 AM 66.2 °F - 64.4 °F 94% 30.00 in 6.2 mi SE 2.3 mph - N/A   Scattered Clouds
1:00 AM 66.2 °F - 64.4 °F 94% 29.98 in 6.2 mi Calm Calm - N/A Fog Scattered Clouds
2:00 AM 66.2 °F - 64.4 °F 94% 29.97 in 6.2 mi Calm Calm - N/A Fog Scattered Clouds
3:00 AM 64 °F - 63 °F 94% 29.85 in 9 mi ESE 2.3 mph - - Fog Light Fog
3:00 AM 64.4 °F - 62.6 °F 94% 29.94 in 6.2 mi ESE 2.3 mph - N/A Fog Scattered Clouds
4:00 AM 64.4 °F - 60.8 °F 88% 29.94 in 6.2 mi NE 5.8 mph - N/A Fog Scattered Clouds
5:00 AM 62.6 °F - 59.0 °F 88% 29.96 in - NE 4.6 mph - N/A   Clear
6:00 AM 63 °F - 60 °F 85% 29.87 in 12 mi ENE 4.6 mph - -   Clear
6:00 AM 62.6 °F - 59.0 °F 88% 29.98 in - ENE 4.6 mph - N/A   Clear
7:00 AM 69.8 °F - 62.6 °F 78% 29.99 in - Calm Calm - N/A   Clear
8:00 AM 77.0 °F - 64.4 °F 65% 30.04 in - East 4.6 mph - N/A   Clear
9:00 AM 78.8 °F - 62.6 °F 57% 30.01 in 6.2 mi SE 6.9 mph - N/A   Scattered Clouds
10:00 AM 80.6 °F 81.8 °F 62.6 °F 54% 30.00 in 6.2 mi SSW 4.6 mph - N/A   Mostly Cloudy
11:00 AM 80.6 °F 82.7 °F 66.2 °F 61% 29.98 in - West 6.9 mph - N/A   Scattered Clouds
12:00 PM 80.6 °F 83.2 °F 68.0 °F 65% 29.95 in 6.2 mi WSW 9.2 mph - N/A   Scattered Clouds
1:00 PM 78.8 °F - 69.8 °F 74% 29.93 in 6.2 mi WSW 11.5 mph - N/A   Scattered Clouds
1:46 PM 71.6 °F - 64.4 °F 78% 29.92 in 6.2 mi WNW 11.5 mph - N/A Rain Rain
2:29 PM 68.0 °F - 66.2 °F 94% 29.93 in 3.1 mi WSW 4.6 mph - N/A Rain Rain
3:00 PM 68 °F - 65 °F 88% 29.80 in 2 mi South 3.5 mph - - Rain Light Rain
3:00 PM 68.0 °F - 66.2 °F 94% 29.93 in 4.3 mi South 3.5 mph - N/A Rain Light Rain
4:00 PM 68.0 °F - 66.2 °F 94% 29.95 in 6.2 mi ESE 3.5 mph - N/A Rain Rain
5:00 PM 69.8 °F - 66.2 °F 88% 29.95 in 6.2 mi NE 3.5 mph - N/A Rain Light Rain
6:00 PM 69 °F - 66 °F 86% 29.85 in 9 mi SW 3.5 mph - - Rain Light Drizzle
6:00 PM 69.8 °F - 66.2 °F 88% 29.97 in 6.2 mi SW 3.5 mph - N/A Fog Overcast
7:00 PM 68.0 °F - 66.2 °F 94% 29.98 in 6.2 mi South 2.3 mph - N/A Fog Patches of Fog
8:00 PM 68.0 °F - 66.2 °F 94% 30.01 in 6.2 mi ENE 3.5 mph - N/A Fog Patches of Fog
9:00 PM 67 °F - 65 °F 91% 29.88 in 9 mi SSW 3.5 mph - - Fog Light Fog
9:00 PM 68.0 °F - 64.4 °F 88% 30.04 in 6.2 mi SSW 3.5 mph - N/A Fog Mostly Cloudy
10:00 PM 68.0 °F - 64.4 °F 88% 30.04 in - WSW 3.5 mph - N/A   Clear
11:00 PM 68.0 °F - 64.4 °F 88% 30.03 in - Calm Calm - N/A   Clear